Probability
0 0 0 0 0 0 0 0 0 0 0 0 0 0 0 0 1 1 0 0 0 1 2 2 1 1 2 3 3 2 1 0 0 0 0 0 1 2 2 1 0 1 1
0 0 0 0 0 0 0 0 0 0 0 0 0 0 0 1 2 2 1 0 0 1 2 1 0 0 1 2 2 1 0 0 0 0 0 0 0 1 1 1 0 1 3
0 0 0 0 0 1 1 0 0 0 0 0 0 0 1 1 3 3 2 1 0 1 1 0 0 0 0 0 0 0 0 0 0 0 0 0 0 0 0 0 1 2 3
0 0 0 0 0 0 1 1 0 0 0 0 0 0 1 2 3 3 2 1 0 0 0 0 0 0 0 0 0 0 0 0 0 0 0 0 1 1 1 1 2 3 3
0 0 0 0 0 0 0 0 0 0 0 0 0 0 1 2 3 3 3 1 0 0 0 0 0 0 0 0 0 0 0 0 0 0 0 1 2 2 2 3 4 4 4
0 0 1 1 1 0 0 0 0 0 0 0 0 0 0 1 2 2 2 2 1 0 0 0 0 0 0 0 0 0 0 0 0 0 0 1 2 3 3 3 4 5 6
0 0 1 2 2 1 0 0 0 0 0 0 0 0 0 0 1 1 1 1 1 0 0 0 0 0 0 0 0 0 0 0 0 0 0 1 2 3 3 3 3 4 5
0 0 0 1 2 2 1 0 0 0 0 0 0 0 0 0 1 1 1 1 1 1 1 1 1 1 1 1 0 0 0 0 0 0 0 0 2 4 4 3 2 2 3
0 0 0 0 1 1 1 1 0 0 0 0 0 0 0 1 2 2 3 3 3 3 3 3 2 2 2 2 1 0 0 0 0 0 0 1 3 5 4 3 2 1 1
0 0 0 0 0 1 2 1 0 0 0 1 1 1 1 2 2 3 3 4 3 4 4 4 3 3 4 3 1 1 1 0 0 0 1 2 4 5 4 3 3 1 1
0 0 0 0 0 1 2 1 0 0 0 1 2 2 2 2 1 1 2 3 2 3 3 3 3 4 4 3 2 2 1 1 1 1 2 3 4 5 4 3 3 3 2
0 0 0 0 0 1 1 0 0 0 0 1 1 1 1 1 1 1 2 2 1 1 1 2 3 3 3 3 3 3 3 2 2 3 3 4 5 6 5 4 3 3 3
1 0 0 0 0 0 0 0 0 0 0 0 0 0 0 1 2 3 3 2 1 1 1 1 2 2 2 2 3 4 3 3 3 3 4 5 6 6 5 4 3 4 4
2 1 0 0 1 1 1 0 0 0 0 0 0 0 0 2 3 3 2 1 1 1 1 1 1 2 2 3 3 3 3 3 3 3 4 6 8 8 6 4 4 5 4
2 1 0 0 1 2 1 0 0 0 0 0 0 0 0 1 2 2 1 0 1 1 1 1 2 3 3 3 3 3 3 3 3 3 4 6 9 9 7 5 6 6 5
2 1 1 0 1 1 1 0 0 0 0 0 0 0 0 1 3 3 1 1 2 2 2 2 3 3 3 3 3 3 3 3 3 3 3 5 8 9 7 6 6 6 6
2 2 1 0 0 0 0 0 0 1 1 1 1 1 1 2 3 3 2 2 3 4 4 3 3 2 3 3 3 3 3 3 3 4 4 4 6 8 7 6 6 6 6
1 1 1 0 0 0 0 0 1 2 3 3 4 3 2 2 2 2 2 3 4 5 5 4 2 1 1 2 3 3 3 3 4 4 4 4 5 6 7 6 5 5 6
1 1 0 0 0 0 1 1 1 3 4 5 5 4 2 2 2 3 3 4 6 6 6 4 2 1 1 1 3 3 3 3 3 4 4 4 5 6 6 5 4 5 6
3 3 2 1 1 1 2 2 3 4 5 5 5 3 3 3 3 3 3 4 5 6 5 3 3 3 2 2 2 3 3 4 4 4 4 3 4 4 4 4 4 4 6
6 6 6 4 3 3 3 4 4 4 4 4 4 4 3 3 3 3 3 4 5 5 3 1 2 3 3 2 2 2 2 4 5 5 5 3 2 1 1 2 2 4 5
6 7 9 8 6 5 5 6 6 4 3 4 5 5 4 4 3 3 3 3 4 4 1 1 1 1 2 2 2 2 2 4 5 5 5 3 1 0 0 1 2 4 5
4 7 10 10 9 10 10 9 7 6 6 7 7 7 6 5 4 3 3 4 5 4 2 2 1 2 3 4 4 4 4 4 5 5 4 2 2 2 2 2 3 5 6
2 6 11 13 14 15 15 12 10 9 9 9 9 9 7 5 4 3 4 6 7 6 4 3 3 5 7 8 9 8 6 6 6 6 5 4 3 4 3 4 4 4 5
4 7 13 17 19 18 17 15 12 10 9 9 8 8 7 6 4 4 5 8 9 8 6 5 4 7 9 10 12 12 9 8 8 7 7 7 5 3 3 4 4 3 3
6 9 14 20 22 19 18 16 12 9 8 7 7 7 7 6 5 4 5 7 8 8 7 6 5 6 8 10 12 12 11 9 8 8 9 9 7 3 2 2 2 2 3
Wind_Speed
4 7 9 6 6 7 7 7 8 9 9 9 8 9 9 9 9 9 10 9 10 10 10 10 9 9 9 9 9 9 8 8 8 8 9 9 8 8 8 8 9 7 8
6 7 9 6 6 7 7 7 8 8 8 8 8 8 9 9 9 9 10 9 9 9 9 9 9 9 8 8 8 8 8 7 7 8 9 9 9 8 8 7 5 4 8
7 8 9 7 6 7 7 7 7 8 8 8 8 8 8 8 8 8 9 9 9 9 9 8 8 9 8 8 8 7 7 7 7 8 10 8 8 9 8 7 6 6 7
7 7 8 8 7 7 7 7 7 7 8 7 7 7 7 7 7 8 8 8 7 7 7 7 8 8 8 8 8 7 7 7 7 9 8 5 6 9 9 8 8 8 7
7 6 9 7 7 7 7 7 7 7 7 7 7 6 6 7 7 7 7 7 6 6 6 6 7 6 7 7 7 7 7 7 8 10 4 3 4 8 9 8 8 8 8
7 7 10 7 8 7 6 6 6 6 6 6 6 5 6 6 6 6 6 6 5 5 5 5 6 6 6 5 6 6 6 7 10 5 3 3 3 7 8 9 9 8 8
7 7 10 8 7 6 6 6 5 6 5 5 5 5 5 5 5 5 6 6 5 5 4 5 5 5 5 5 4 5 5 7 7 3 3 3 3 5 7 9 9 9 9
7 7 9 9 7 7 6 5 5 5 5 5 5 4 4 4 5 4 5 5 5 5 5 4 4 4 4 4 4 4 4 7 6 4 4 3 4 6 7 8 9 10 10
6 6 6 8 8 8 6 6 5 5 4 4 3 3 3 3 4 4 4 4 5 5 5 5 4 4 4 4 4 4 5 7 6 3 4 2 5 7 8 8 9 10 10
6 5 5 5 5 6 7 7 5 5 4 4 3 2 2 4 5 5 5 4 4 5 6 6 6 5 5 4 5 5 6 8 5 4 3 2 6 7 8 9 10 10 10
4 4 4 4 4 3 4 7 6 6 5 4 4 4 4 3 3 5 3 3 4 5 6 6 6 6 7 7 6 6 8 4 3 3 2 2 5 7 8 9 9 10 11
4 4 3 3 3 3 3 4 3 3 4 2 1 2 2 1 1 1 5 4 3 4 6 6 7 8 8 4 6 8 4 4 3 3 1 3 5 6 7 8 9 10 10
4 3 3 3 2 2 2 2 2 1 2 2 2 2 1 1 1 1 1 4 4 5 3 5 6 4 2 2 2 3 3 3 2 2 1 4 4 5 7 8 9 9 9
4 4 3 4 3 2 1 1 2 1 1 1 1 1 1 0 0 0 0 0 1 1 1 1 1 2 2 3 3 3 3 3 2 2 1 3 4 5 6 7 7 8 9
5 4 4 3 3 3 2 1 1 1 1 1 1 1 0 0 0 1 1 1 1 0 1 1 1 1 2 3 3 3 3 3 3 3 1 4 4 5 6 7 7 7 8
5 5 4 4 4 3 3 2 1 1 1 1 1 1 1 1 0 0 1 1 1 1 1 1 1 1 2 2 3 3 4 3 3 4 3 4 7 7 6 7 7 7 8
4 4 5 5 5 4 3 3 2 2 1 1 1 1 1 1 0 1 1 1 1 1 0 1 1 1 2 2 2 3 3 3 3 3 3 3 3 7 8 7 7 7 8
4 4 4 4 5 5 3 2 2 1 1 1 1 1 1 1 1 2 1 1 1 1 1 0 1 1 2 2 2 3 2 2 3 3 3 3 3 2 6 7 7 6 7
4 5 5 4 4 4 4 3 3 2 2 1 1 1 1 1 1 2 1 1 2 1 1 1 0 2 2 2 2 2 2 2 2 3 3 3 3 3 3 5 8 8 7
5 5 5 5 5 4 4 4 3 2 2 2 1 1 1 1 1 2 1 1 2 1 1 1 1 2 2 2 3 2 2 2 2 2 3 2 2 3 3 3 4 6 9
6 6 6 5 5 5 4 4 3 3 2 2 1 1 1 2 1 2 2 0 1 1 2 2 2 1 2 2 2 2 2 3 1 2 2 2 2 2 2 3 3 2 3
6 6 6 6 6 6 4 3 2 2 2 1 0 1 1 2 2 1 1 2 1 1 1 2 2 2 2 1 2 3 2 2 2 1 1 1 2 2 2 2 1 2 3
7 7 6 6 6 6 5 4 3 3 2 2 2 1 1 1 2 1 1 2 2 2 1 2 2 3 2 1 2 3 3 2 2 2 2 1 1 2 2 2 2 2 3
7 7 7 6 6 6 5 4 4 3 2 1 1 1 1 1 1 1 2 2 2 2 1 2 1 2 3 2 1 1 3 4 4 2 1 0 1 2 2 3 2 2 2
6 6 6 6 6 5 5 5 4 3 2 2 2 2 2 2 2 2 2 2 2 2 2 2 2 3 3 3 2 2 2 2 4 4 3 2 2 2 1 2 2 3 2
6 5 5 6 5 5 5 5 5 4 3 3 3 2 3 2 2 2 2 1 2 2 2 2 3 2 2 3 3 3 3 3 3 3 4 4 3 2 2 2 3 3 3
Wind_Direction
113 110 113 119 116 112 110 109 110 116 119 121 122 123 125 128 137 141 142 143 143 147 148 147 145 145 150 152 148 148 147 148 151 154 154 156 159 159 161 171 182 158 139
113 115 120 120 120 118 117 114 114 116 117 121 124 124 125 128 132 137 143 144 145 146 147 148 148 146 147 145 146 150 151 155 162 167 166 169 170 169 172 182 198 132 146
116 120 130 125 123 123 122 119 118 118 118 120 123 125 125 126 129 133 140 145 148 151 153 151 151 152 151 149 152 156 162 170 177 184 195 190 170 174 179 182 174 161 164
120 124 120 124 127 125 125 124 123 119 118 121 123 127 130 131 133 136 139 141 148 154 156 155 154 156 159 163 166 170 175 180 192 209 209 191 176 166 181 185 183 179 180
122 121 112 125 127 125 125 123 123 122 121 124 124 128 135 139 138 136 139 143 148 150 153 156 159 163 168 173 175 179 187 195 209 224 208 195 183 159 181 190 192 188 187
124 121 112 126 128 125 124 122 122 120 121 126 126 127 130 134 138 140 146 152 155 154 155 158 160 162 167 170 176 185 198 212 224 208 200 206 182 160 187 196 198 197 192
119 116 117 124 128 129 130 128 128 126 123 127 125 126 129 135 143 151 158 163 161 158 158 159 166 169 172 173 174 183 201 225 237 202 199 199 167 165 194 204 205 203 196
114 116 118 129 134 135 134 130 129 125 122 123 126 127 126 132 142 150 156 168 169 170 170 167 172 174 177 182 183 189 206 235 223 211 211 201 160 183 206 211 212 208 203
113 114 122 134 142 148 142 134 129 125 123 122 124 122 126 144 155 158 168 179 181 179 179 177 182 187 187 188 191 200 213 239 251 231 226 208 163 198 213 218 219 218 213
119 121 124 123 131 152 149 142 140 139 135 137 139 142 176 185 181 181 183 179 184 185 188 187 193 202 203 199 206 220 230 239 244 237 235 180 173 207 218 223 225 224 220
124 125 130 131 146 153 143 140 160 159 159 176 167 178 220 204 174 173 146 157 192 199 202 198 200 211 216 205 210 228 236 241 245 256 239 147 189 211 222 227 228 226 223
141 144 141 137 150 146 143 145 164 161 148 177 145 181 210 167 210 189 137 176 196 204 203 200 207 215 227 212 198 220 239 238 243 242 199 164 204 218 225 228 228 231 225
152 150 151 139 150 156 149 151 136 145 139 164 154 181 180 220 175 190 165 179 189 200 204 186 206 215 217 244 255 241 265 267 253 253 187 162 208 226 233 235 232 229 224
160 161 153 145 154 167 161 151 167 164 147 146 135 238 169 169 206 100 175 251 200 181 190 202 207 197 228 245 249 256 255 265 274 272 204 171 212 234 243 246 239 233 229
170 171 160 167 159 164 170 223 162 161 161 149 171 162 283 220 199 72 23 329 297 293 201 219 230 223 236 242 253 254 257 262 270 268 228 185 210 235 244 247 242 240 233
180 172 165 178 167 176 183 189 200 206 181 241 164 147 258 239 69 358 241 284 300 312 341 299 263 239 249 260 258 261 265 269 261 264 264 206 200 217 234 243 245 243 243
179 169 171 178 174 180 191 198 194 212 198 200 136 177 249 273 135 263 272 263 314 320 285 253 274 262 247 250 256 257 252 260 271 267 269 273 227 200 211 227 238 242 245
180 171 179 185 174 178 186 203 210 224 201 207 200 188 195 287 289 282 298 305 314 272 255 254 278 289 283 281 272 267 262 247 251 256 254 254 269 254 199 205 226 240 243
182 177 180 189 183 179 180 190 202 196 218 227 220 248 184 230 260 272 316 339 281 281 294 288 20 297 292 295 269 243 256 250 249 251 264 258 250 265 264 192 209 224 234
181 184 186 186 187 186 184 185 196 198 202 206 208 227 261 246 247 281 251 288 291 308 315 338 311 291 288 293 289 285 254 250 247 247 260 255 242 252 261 269 231 207 206
186 186 190 191 180 191 194 201 195 193 199 195 192 181 226 256 262 268 292 280 289 322 319 308 297 269 289 306 289 277 224 213 221 243 263 280 271 264 266 265 265 276 211
190 193 194 190 186 192 189 201 211 227 215 182 166 132 241 246 260 244 282 278 273 289 289 296 289 301 309 306 301 295 269 187 185 211 242 247 300 285 271 264 270 251 273
193 198 199 195 191 193 187 190 186 189 203 186 186 185 230 249 248 287 274 279 274 254 243 260 275 286 305 306 311 310 310 328 315 190 233 258 287 292 284 287 258 255 255
197 192 194 191 192 189 190 200 201 202 201 196 213 196 209 212 235 229 241 249 259 265 267 261 272 287 285 291 271 281 304 323 299 291 230 230 259 263 288 290 290 266 258
191 187 184 183 186 189 196 199 209 214 211 209 199 181 227 199 218 227 235 255 258 265 282 300 302 293 290 296 300 287 269 254 266 286 295 297 270 253 266 276 290 288 280
178 179 178 171 174 183 193 201 208 211 218 227 222 217 219 207 213 219 233 258 266 288 286 277 281 275 293 302 294 290 285 288 285 282 284 279 281 279 279 289 286 290 282